User: anonymous   Login
Location: Unspecified
(0.0000°N, 0.0000°E)
Time: 02:19:20
(UTC+00:00)
Language:

Genesis I - Orbit

View from above orbital plane
View from above orbital plane
View from above satellite
View from above satellite

Ground track
Ground track

The orbit data is extracted from the following two-line orbital elements,

1 29252U 06029A   19020.89641694 +.00000140 +00000-0 +17235-4 0  9993
2 29252 064.5009 181.0643 0053484 264.7755 094.7263 15.17546531690159
Epoch (UTC): 20 January 2019 21:30:50
Eccentricity: 0.0053484
inclination: 64.5009°
perigee height: 476 km
apogee height: 550 km
right ascension of ascending node: 181.0643°
argument of perigee: 264.7755°
revolutions per day: 15.17546531
mean anomaly at epoch: 94.7263°
orbit number at epoch: 69015

The dashed part of the orbit path shows where the satellite is in the earth's shadow,  

DLR